{"data":{"norad_id":68484,"epoch":"2026-05-25T03:53:22.085088Z","epoch_age_seconds":75134,"freshness":"FRESH","line1":"1 68484U 26067BW  26145.16206117  .00003237  00000+0  25210-3 0  9990","line2":"2 68484  97.7620 103.9748 0003096  41.3618 318.7841 15.01937887  8308","mean_motion":15.01937887,"eccentricity":0.0003096,"inclination_deg":97.762,"raan_deg":103.9748,"arg_perigee_deg":41.3618,"mean_anomaly_deg":318.7841,"bstar":0.0002521,"rev_number":830,"period_min":95.876135255918,"perigee_km":558.77280579736,"apogee_km":563.06947059653,"semimajor_km":6939.0581381969,"source":"CELESTRAK","updated_at":"2026-05-25T13:38:07.870569Z"}}